Weather Roundup
Issued by NWS Chicago, IL

Home | Current Version | Previous Version | Graphics & Text | Print | Product List | Glossary On
Versions: 1 2 3 4 5 6 7 8 9 10 11 12 13 14 15 16 17 18 19 20 21 22 23 24 25 26 27 28 29 30 31 32 33 34 35 36 37 38 39 40 41 42 43 44 45 46 47 48 49 50
298
NZUS59 KLOT 240703
HRRLOT

CHICAGO AREA WEATHER ROUNDUP
NATIONAL WEATHER SERVICE CHICAGO/ROMEOVILLE IL
200 AM CDT THU MAY 24 2018

NOTE: "FAIR" INDICATES FEW OR NO CLOUDS BELOW 12,000 FEET WITH NO
SIGNIFICANT WEATHER AND/OR OBSTRUCTIONS TO VISIBILITY.

* THESE STATIONS ARE NOT UNDER NWS QUALITY CONTROL. THEY ALSO MAY NOT
  REPORT WEATHER SUCH AS PRECIPITATION OR FOG.

ILZ005-006-012>014-019>023-240800-
NORTHEAST ILLINOIS

CITY           SKY/WX    TMP DP  RH WIND       PRES   REMARKS
OHARE            N/A     60  52  74 CALM      30.16F
MIDWAY           N/A     61  52  72 CALM      30.16F
AURORA           N/A     60  53  77 CALM      30.16F
LANSING*         N/A     55  55  97 CALM      30.17F
JOLIET*          N/A     59  55  84 CALM      30.16F
WAUKEGAN         N/A     51  50  96 CALM      30.17S FOG
DUPAGE AIRPORT   N/A     57  51  80 CALM      30.16F
WHEELING         N/A     57  54  89 CALM      30.18F
KANKAKEE*        N/A     60  54  78 CALM      30.17S
MORRIS*          N/A     59  53  81 CALM      30.16S
LEWIS AIRPORT*   N/A     58  52  80 E5        30.17S
NORTHERLY ISL    N/A     57  52  83 CALM        N/A
$$

WIZ051-052-058>065-066-070>072-240800-
SOUTHEAST WISCONSIN

CITY           SKY/WX    TMP DP  RH WIND       PRES   REMARKS
MILWAUKEE        N/A     59  49  69 CALM      30.17F
KENOSHA*         N/A     56  52  86 S3        30.17F
RACINE*          N/A     55  52  89 S3        30.18F
BURLINGTON       N/A     54  52  95 CALM      30.17F
WAUKESHA         N/A     57  46  67 CALM      30.18F
WEST BEND        N/A     54  52  94 CALM      30.17F
$$

INZ001>003-010>013-019-020-240800-
NORTHWEST INDIANA

CITY           SKY/WX    TMP DP  RH WIND       PRES   REMARKS
GARY*            N/A     56  56 100 CALM      30.18S FOG
MICHIGAN CITY* NOT AVBL
RENSSELAER*    NOT AVBL
VALPARAISO       N/A     61  56  83 NE3       30.18F
$$

LMZ740>746-240800-
SOUTHERN LAKE MICHIGAN

STATION/POSITION TIME  SKY/WX   TEMP WIND        PRES    VSBY
                                AIR  DIR/SP/G
                 (UTC)          (F)  (DEG/KT/KT) (MB)    (MI)
HARRISON CRIB    0640            58  130/  2/  2   N/A
BURNHAM HARBOR   0700            58  110/  1/  2   N/A
CALUMET HARBOR   0630            57   CALM  /  1 1021.2F
BURNS HARBOR     0640            58     CALM     1022.4F
MICHIGAN CITY    0640            60  120/  1/  2   N/A
$$

ABBREVIATIONS USED IN REMARKS
   TC - TEMPERATURE IN CELSIUS
  WCI - WIND CHILL INDEX
   HX - HEAT INDEX
  VSB - VISIBILITY
$$




USA.gov is the U.S. government's official web portal to all federal, state and local government web resources and services.